Location: Newark
(48.8656°N, 2.3211°E)
Time: 22:44:28
(UTC+00:00)

Envisat - Pass Details

Date: 16 December 2019
Orbit: 764 x 766 km, 98.1° (Epoch: 21 January)

Event Time Altitude Azimuth Distance (km) Brightness Sun altitude
Rises 05:55:33 0° 21° (NNE) 3,245 6.3 -15.8°
Reaches altitude 10° 05:58:07 10° 32° (NNE) 2,314 5.7 -15.4°
Maximum altitude 06:02:39 32° 95° (E) 1,310 5.0 -14.7°
Drops below altitude 10° 06:07:09 10° 157° (SSE) 2,297 6.1 -14.0°
Sets 06:09:40 0° 168° (SSE) 3,218 6.7 -13.6°
